Weather History for KVCB - November, 2011

Change the Weather History Date:

Sunday, November 27, 2011

  Actual Average Record
Temperature  
Mean Temperature 46 °F -  
Max Temperature 55 °F 59 °F 76 °F (1958)
Min Temperature 37 °F 39 °F 29 °F (1956)
Degree Days  
Heating Degree Days 19    
Moisture  
Dew Point 45 °F    
Average Humidity 96    
Maximum Humidity 100    
Minimum Humidity 75    
Precipitation  
Precipitation 0.00 in - - ()
Sea Level Pressure  
Sea Level Pressure 30.33 in    
Wind  
Wind Speed 1 mph (NE)    
Max Wind Speed 6 mph    
Max Gust Speed -    
Visibility 5 miles    
Events Fog    
Averages and records for this station are not official NWS values.
T = Trace of Precipitation, MM = Missing Value Source: NWS Daily Summary

Daily Weather History Graph

Daily Weather History Graph

Search for Another Location

Airport or City:

Trip Planner

Search our weather history database for the weather conditions in past years. The results will help you decide how hot, cold, wet, or windy it might be!

Date:

Astronomy

Nov. 27, 2011 Rise Set
Actual Time 7:01 AM PST 4:48 PM PST
Civil Twilight 6:32 AM PST 5:17 PM PST
Nautical Twilight 6:00 AM PST 5:50 PM PST
Astronomical Twilight 5:28 AM PST 6:22 PM PST
Moon 9:30 AM PST (11/27) 7:33 PM PST (11/27)
Length of Visible Light 10h 44m
Length of Day
9h 46m
Waxing Crescent, 9% of the Moon is Illuminated
Nov 27
Waxing Crescent
Dec 2
First Quarter
Dec 10
Full
Dec 17
Last Quarter
Dec 24
New

Hourly Weather History & Observations

Time (PST) Temp. Windchill Dew Point Humidity Pressure Visibility Wind Dir Wind Speed Gust Speed Precip Events Conditions
12:53 AM 43.0 °F - 43.0 °F 100% 30.35 in 0.2 mi Calm Calm - N/A Fog Fog
1:53 AM 43.0 °F 41.3 °F 43.0 °F 100% 30.36 in 0.5 mi NNE 3.5 mph - N/A Fog Fog
2:53 AM 42.1 °F 39.2 °F 42.1 °F 100% 30.35 in 0.2 mi North 4.6 mph - N/A Fog Fog
4:13 AM 39.2 °F 35.9 °F 39.2 °F 100% 30.34 in 1.2 mi North 4.6 mph - N/A   Overcast
4:21 AM 39.2 °F - 39.2 °F 100% 30.34 in 3.0 mi Calm Calm - N/A   Overcast
4:40 AM 39.2 °F - 39.2 °F 100% 30.34 in 2.0 mi Calm Calm - N/A   Overcast
4:53 AM 39.0 °F - 39.0 °F 100% 30.34 in 6.0 mi Calm Calm - N/A   Mostly Cloudy
5:01 AM 37.4 °F - 37.4 °F 100% 30.34 in 9.0 mi Calm Calm - N/A   Scattered Clouds
5:53 AM 37.9 °F - 37.9 °F 100% 30.35 in 10.0 mi Calm Calm - N/A   Clear
7:53 AM 39.9 °F - 39.9 °F 100% 30.36 in 10.0 mi Calm Calm - N/A   Clear
8:21 AM 41.0 °F - 39.2 °F 93% 30.37 in 10.0 mi Calm Calm - N/A   Scattered Clouds
8:30 AM 42.8 °F - 41.0 °F 93% 30.37 in 10.0 mi Calm Calm - N/A   Mostly Cloudy
8:53 AM 42.1 °F - 42.1 °F 100% 30.37 in 2.5 mi Calm Calm - N/A   Overcast
8:59 AM 42.8 °F - 42.8 °F 100% 30.37 in 0.8 mi Calm Calm - N/A   Overcast
9:27 AM 44.6 °F - 44.6 °F 100% 30.39 in 2.0 mi Calm Calm - N/A   Overcast
10:36 AM 48.2 °F - 44.6 °F 87% 30.38 in 10.0 mi Calm Calm - N/A   Scattered Clouds
10:53 AM 48.9 °F - 46.0 °F 90% 30.37 in 10.0 mi ENE 3.5 mph - N/A   Partly Cloudy
11:53 AM 52.0 °F - 46.9 °F 83% 30.36 in 10.0 mi Variable 4.6 mph - N/A   Clear
12:53 PM 54.0 °F - 48.0 °F 80% 30.33 in 10.0 mi ENE 5.8 mph - N/A   Clear
1:53 PM 55.9 °F - 48.0 °F 75% 30.32 in 10.0 mi East 3.5 mph - N/A   Clear
2:53 PM 54.0 °F - 50.0 °F 86% 30.31 in 9.0 mi ESE 3.5 mph - N/A   Clear
3:53 PM 53.1 °F - 48.9 °F 86% 30.30 in 8.0 mi Calm Calm - N/A   Clear
4:53 PM 50.0 °F - 48.0 °F 93% 30.30 in 5.0 mi Calm Calm - N/A   Clear
5:39 PM 48.2 °F - 48.2 °F 100% 30.30 in 6.0 mi Calm Calm - N/A   Scattered Clouds
5:48 PM 48.2 °F - 48.2 °F 100% 30.31 in 5.0 mi Calm Calm - N/A   Mostly Cloudy
5:53 PM 48.9 °F - 48.0 °F 97% 30.31 in 5.0 mi Calm Calm - N/A   Mostly Cloudy
6:02 PM 50.0 °F - 48.2 °F 94% 30.31 in 5.0 mi Calm Calm - N/A   Overcast
6:31 PM 48.2 °F - 48.2 °F 100% 30.30 in 2.5 mi Calm Calm - N/A   Overcast
6:38 PM 50.0 °F - 48.2 °F 94% 30.30 in 3.0 mi Calm Calm - N/A   Overcast
6:50 PM 48.2 °F - 48.2 °F 100% 30.30 in 1.8 mi Calm Calm - N/A   Overcast
6:51 PM 48.9 °F - 48.9 °F 100% 30.30 in 1.5 mi Calm Calm - N/A   Overcast
7:02 PM 48.2 °F - 48.2 °F 100% 30.30 in 0.8 mi Calm Calm - N/A   Mist
7:53 PM 48.9 °F - 48.9 °F 100% 30.30 in 0.2 mi Calm Calm - N/A Fog Fog
8:53 PM 48.9 °F - 48.9 °F 100% 30.30 in 0.2 mi Calm Calm - N/A Fog Fog
9:53 PM 46.9 °F - 46.9 °F 100% 30.31 in 0.2 mi Calm Calm - N/A Fog Fog
10:53 PM 46.9 °F - 46.9 °F 100% 30.32 in 0.2 mi Calm Calm - N/A Fog Fog
11:53 PM 45.0 °F - 45.0 °F 100% 30.32 in 0.2 mi Calm Calm - N/A Fog Fog